Weather History for Alexander City, AL

Change the Weather History Date:

Friday, March 7, 2014

  Actual Average (KAUO) Record (KAUO)
Temperature  
Mean Temperature 53 °F -  
Max Temperature 65 °F - 83 °F (1974)
Min Temperature 41 °F - 19 °F (1960)
Degree Days  
Heating Degree Days 12    
Month to date heating degree days  
Since 1 July heating degree days  
Cooling Degree Days 0    
Month to date cooling degree days  
Year to date cooling degree days  
Growing Degree Days 3 (Base 50)    
Moisture  
Dew Point 41 °F    
Average Humidity 71    
Maximum Humidity 86    
Minimum Humidity 40    
Precipitation  
Precipitation 0.01 in - 2.29 in (2003)
Month to date precipitation  
Year to date precipitation  
Sea Level Pressure  
Sea Level Pressure 30.01 in    
Wind  
Wind Speed 4 mph (North)    
Max Wind Speed 9 mph    
Max Gust Speed -    
Visibility 9 miles    
Events Rain    
T = Trace of Precipitation, MM = Missing Value Source: NWS Daily Summary

Daily Weather History Graph

Daily Weather History Graph

Search for Another Location

Airport:

Trip Planner

Search our weather history database for the weather conditions in past years. The results will help you decide how hot, cold, wet, or windy it might be!

Date:

Astronomy

Mar. 07, 2014 Rise Set
Actual Time 6:04 AM CST 5:45 PM CST
Civil Twilight 5:39 AM CST 6:10 PM CST
Nautical Twilight 5:11 AM CST 6:39 PM CST
Astronomical Twilight 4:42 AM CST 7:07 PM CST
Moon 10:16 AM CST (3/7) No Moon Set
Length of Visible Light 12h 30m
Length of Day
11h 41m
Waxing Crescent, 42% of the Moon is Illuminated
Mar 7
Waxing Crescent
Mar 8
First Quarter
Mar 16
Full
Mar 23
Last Quarter
Mar 30
New

Hourly Weather History & Observations

Time (CST) Temp. Windchill Dew Point Humidity Pressure Visibility Wind Dir Wind Speed Gust Speed Precip Events Conditions
12:15 AM 41.0 °F 38.0 °F 36.7 °F 85% 29.97 in 3.0 mi NNE 4.6 mph - N/A   Overcast
12:35 AM 41.2 °F 39.2 °F 37.0 °F 85% 29.97 in 2.5 mi NNE 3.5 mph - N/A   Light Drizzle
12:55 AM 41.4 °F 38.4 °F 37.4 °F 86% 29.97 in 3.0 mi North 4.6 mph - N/A   Light Drizzle
1:15 AM 41.4 °F 37.6 °F 37.4 °F 86% 29.97 in 2.5 mi North 5.8 mph - N/A   Overcast
1:35 AM 41.4 °F 39.4 °F 37.4 °F 86% 29.97 in 2.5 mi NNE 3.5 mph - N/A   Light Drizzle
1:55 AM 41.4 °F 38.4 °F 37.4 °F 86% 29.97 in 2.5 mi NNE 4.6 mph - N/A   Light Drizzle
2:15 AM 41.4 °F 38.4 °F 37.4 °F 86% 29.96 in 2.5 mi North 4.6 mph - 0.01 in   Light Drizzle
2:35 AM 41.4 °F 38.4 °F 37.4 °F 86% 29.96 in 2.5 mi NNE 4.6 mph - 0.01 in   Overcast
2:55 AM 41.5 °F 37.8 °F 37.6 °F 86% 29.97 in 3.0 mi NNE 5.8 mph - 0.01 in   Overcast
3:15 AM 41.9 °F 39.0 °F 37.8 °F 85% 29.97 in 3.0 mi NNE 4.6 mph - N/A   Overcast
3:35 AM 42.3 °F 40.5 °F 38.3 °F 86% 29.97 in 5.0 mi North 3.5 mph - N/A   Overcast
3:55 AM 42.8 °F 41.1 °F 38.5 °F 85% 29.96 in 7.0 mi NNE 3.5 mph - N/A   Overcast
4:20 AM 42.8 °F 41.1 °F 38.5 °F 85% 29.96 in 7.0 mi NNE 3.5 mph - N/A   Mostly Cloudy
4:35 AM 42.8 °F 41.1 °F 38.3 °F 84% 29.97 in 10.0 mi NNE 3.5 mph - N/A   Mostly Cloudy
4:55 AM 42.8 °F - 38.3 °F 84% 29.98 in 10.0 mi Calm Calm - N/A   Mostly Cloudy
5:15 AM 42.8 °F 39.3 °F 38.3 °F 84% 29.99 in 10.0 mi NNW 5.8 mph - N/A   Overcast
5:35 AM 43.0 °F 41.3 °F 38.7 °F 85% 30.01 in 10.0 mi NNW 3.5 mph - N/A   Overcast
5:55 AM 43.3 °F 41.7 °F 39.2 °F 85% 30.02 in 7.0 mi NNW 3.5 mph - N/A   Drizzle
6:15 AM 43.9 °F 42.3 °F 39.6 °F 85% 30.02 in 10.0 mi NNW 3.5 mph - N/A Rain Light Rain
6:35 AM 43.9 °F 42.3 °F 39.6 °F 85% 30.03 in 7.0 mi NNW 3.5 mph - N/A   Overcast
6:55 AM 44.2 °F 41.0 °F 40.1 °F 85% 30.03 in 2.5 mi NNW 5.8 mph - N/A   Overcast
7:15 AM 45.1 °F - 41.0 °F 85% 30.03 in 7.0 mi Calm Calm - N/A   Overcast
7:35 AM 46.4 °F 44.3 °F 41.7 °F 84% 30.04 in 10.0 mi NNW 4.6 mph - N/A   Mostly Cloudy
8:00 AM 47.7 °F - 43.0 °F 84% 30.05 in 10.0 mi NNW 6.9 mph - N/A   Mostly Cloudy
8:15 AM 47.7 °F - 42.6 °F 83% 30.05 in 10.0 mi Calm Calm - N/A   Overcast
8:35 AM 50.2 °F - 43.7 °F 78% 30.05 in 10.0 mi NNE 4.6 mph - N/A   Mostly Cloudy
8:55 AM 50.2 °F - 42.4 °F 75% 30.04 in 10.0 mi North 4.6 mph - N/A   Scattered Clouds
9:15 AM 52.2 °F - 43.0 °F 71% 30.06 in 10.0 mi North 9.2 mph - N/A   Mostly Cloudy
9:35 AM 52.7 °F - 42.8 °F 69% 30.05 in 10.0 mi NNE 5.8 mph - N/A   Overcast
9:55 AM 55.4 °F - 43.9 °F 65% 30.04 in 10.0 mi NNE 6.9 mph - N/A   Overcast
10:15 AM 55.4 °F - 43.3 °F 64% 30.04 in 10.0 mi NE 3.5 mph - N/A   Mostly Cloudy
10:35 AM 57.6 °F - 44.6 °F 62% 30.04 in 10.0 mi North 6.9 mph - N/A   Mostly Cloudy
10:55 AM 57.7 °F - 43.5 °F 59% 30.04 in 10.0 mi Calm Calm - N/A   Scattered Clouds
11:15 AM 57.9 °F - 41.7 °F 55% 30.03 in 10.0 mi NNE 4.6 mph - N/A   Scattered Clouds
11:35 AM 60.3 °F - 42.8 °F 53% 30.02 in 10.0 mi ESE 4.6 mph - N/A   Scattered Clouds
11:55 AM 60.3 °F - 43.0 °F 53% 30.01 in 10.0 mi North 6.9 mph - N/A   Mostly Cloudy
12:15 PM 60.3 °F - 43.5 °F 54% 30.00 in 10.0 mi NE 5.8 mph - N/A   Overcast
12:35 PM 60.3 °F - 41.9 °F 51% 30.00 in 10.0 mi Calm Calm - N/A   Overcast
12:55 PM 60.4 °F - 42.1 °F 51% 29.98 in 10.0 mi North 4.6 mph - N/A   Overcast
1:15 PM 61.7 °F - 42.3 °F 49% 29.98 in 10.0 mi North 4.6 mph - N/A   Mostly Cloudy
1:35 PM 61.7 °F - 42.1 °F 49% 29.98 in 10.0 mi NNW 5.8 mph - N/A   Mostly Cloudy
1:55 PM 61.0 °F - 41.7 °F 49% 29.97 in 10.0 mi North 4.6 mph - N/A   Mostly Cloudy
2:15 PM 62.6 °F - 41.7 °F 46% 29.98 in 10.0 mi NW 6.9 mph - N/A   Scattered Clouds
2:35 PM 61.7 °F - 40.6 °F 46% 29.97 in 10.0 mi NW 4.6 mph - N/A   Mostly Cloudy
2:55 PM 62.4 °F - 41.0 °F 45% 29.97 in 10.0 mi North 5.8 mph - N/A   Mostly Cloudy
3:15 PM 62.8 °F - 41.7 °F 46% 29.98 in 10.0 mi WNW 8.1 mph - N/A   Mostly Cloudy
3:35 PM 63.9 °F - 40.8 °F 43% 29.98 in 10.0 mi WNW 4.6 mph - N/A   Mostly Cloudy
3:55 PM 65.5 °F - 41.7 °F 42% 29.98 in 10.0 mi WNW 8.1 mph - N/A   Mostly Cloudy
4:15 PM 65.3 °F - 40.8 °F 41% 29.98 in 10.0 mi West 8.1 mph - N/A   Mostly Cloudy
4:35 PM 63.5 °F - 39.9 °F 42% 29.99 in 10.0 mi West 6.9 mph - N/A   Scattered Clouds
4:55 PM 63.5 °F - 38.7 °F 40% 29.99 in 10.0 mi NW 5.8 mph - N/A   Clear
5:15 PM 62.8 °F - 39.6 °F 42% 30.00 in 10.0 mi West 4.6 mph - N/A   Clear
5:35 PM 61.3 °F - 40.3 °F 46% 30.01 in 10.0 mi West 3.5 mph - N/A   Clear
5:55 PM 60.3 °F - 41.0 °F 49% 30.02 in 10.0 mi Calm Calm - N/A   Clear
6:15 PM 55.4 °F - 44.6 °F 67% 30.02 in 10.0 mi Calm Calm - N/A   Clear
6:35 PM 55.0 °F - 46.4 °F 73% 30.03 in 10.0 mi Calm Calm - N/A   Clear
6:55 PM 52.7 °F - 45.9 °F 78% 30.03 in 10.0 mi Calm Calm - N/A   Clear
7:15 PM 51.4 °F - 44.4 °F 77% 30.03 in 10.0 mi Calm Calm - N/A   Clear
7:35 PM 50.2 °F - 43.5 °F 78% 30.04 in 10.0 mi Calm Calm - N/A   Clear
7:55 PM 48.9 °F - 43.7 °F 82% 30.04 in 10.0 mi Calm Calm - N/A   Clear
8:15 PM 50.2 °F - 45.1 °F 83% 30.05 in 10.0 mi Calm Calm - N/A   Clear
8:35 PM 50.2 °F - 45.7 °F 85% 30.05 in 10.0 mi Calm Calm - N/A   Clear
9:00 PM 47.7 °F - 42.8 °F 83% 30.06 in 10.0 mi Calm Calm - N/A   Clear
9:15 PM 49.5 °F - 45.0 °F 84% 30.06 in 10.0 mi Calm Calm - N/A   Clear
9:35 PM 47.7 °F - 43.2 °F 84% 30.06 in 10.0 mi Calm Calm - N/A   Clear
9:55 PM 47.7 °F - 43.0 °F 84% 30.06 in 10.0 mi Calm Calm - N/A   Clear
10:15 PM 45.5 °F - 40.6 °F 83% 30.06 in 10.0 mi Calm Calm - N/A   Clear
10:35 PM 46.9 °F - 42.4 °F 84% 30.06 in 10.0 mi Calm Calm - N/A   Clear
10:55 PM 44.2 °F - 40.1 °F 85% 30.06 in 10.0 mi Calm Calm - N/A   Clear
11:15 PM 44.8 °F - 40.5 °F 85% 30.06 in 10.0 mi Calm Calm - N/A   Clear
11:35 PM 43.2 °F - 39.0 °F 85% 30.07 in 10.0 mi Calm Calm - N/A   Clear
11:55 PM 43.5 °F - 39.4 °F 85% 30.07 in 10.0 mi Calm Calm - N/A   Clear